{"data":{"norad_id":63461,"intl_designator":"2025-070B","name":"STARLINK-33706","alt_names":[],"object_type":"PAYLOAD","status":"ACTIVE","operator":null,"country":"US","launch_date":"2025-04-06","launch_site_code":"AFETR","launch_vehicle":null,"mission":null,"orbit_class":"UNKNOWN","rcs_meters":null,"size_class":null,"mass_kg":null,"dimensions":null,"purposes":["comms"],"wikipedia_slug":null,"has_3d_model":false,"image_url":null,"decayed_at":null,"tle_current":{"epoch":"2026-05-25T03:11:51.961056Z","epoch_age_seconds":74120,"freshness":"FRESH","line1":"1 63461U 25070B   26145.13324029  .00017765  00000+0  65328-3 0  9998","line2":"2 63461  43.0006 188.4222 0004938 296.4645  63.5700 15.27585199 64667","mean_motion":15.27585199,"eccentricity":0.0004938,"inclination_deg":43.0006,"raan_deg":188.4222,"arg_perigee_deg":296.4645,"mean_anomaly_deg":63.57,"bstar":0.00065328,"rev_number":6466,"period_min":94.266427885179,"perigee_km":479.64548240055,"apogee_km":486.4215744144,"semimajor_km":6861.1705284075,"source":"CELESTRAK","updated_at":"2026-05-25T13:38:20.004252Z"}}}